FENGYUN 1C DEB, 37406

Orbit data source: Space-Track

FENGYUN 1C DEB, 37406 is space debris in SSO originally from a launch on Mon, 10 May 1999 UTC launched from the Taiyaun Space Center, China (TSC). Fengyun 1C debris stems from the Chinese weather satellite Fengyun-1C, which was intentionally destroyed by a Chinese anti-satellite missile in 2007. This event dramatically increased the amount of space debris, with thousands of trackable fragments posing hazards to satellites and human spaceflight. The Fengyun 1C debris cloud has become a focal point in discussions about space sustainability and the need for international regulations to prevent the creation of new debris.

Loading next visibility...
Identifier
37406, 1999-025EFY
Orbit
SSO
Country
Flag of CNCN / PRC
Related business
Manufacturer
Unknown
Mission
Spacecraft
Bus & Motor
Unknown
Mass
Unknown
Launch date (UTC)
1999-05-10 (27 years ago)
Launch vehicle
Unknown
Launch site
Taiyaun Space Center, China (TSC)
Object type
Payload
Rocket body
Debris
Shape & HBR
Unknown shape, 0.1 m
Radar Cross Section
Small (<0.1 m²)

Expand to show TLE details & history
Last TLE update: 5 days ago

TLE from 5 days ago
0 FENGYUN 1C DEB
1 37406U 99025EFY 26146.84135598  .00001487  00000-0  86143-3 0  9992
2 37406  98.4310  12.4582 0149062 158.1573 273.9044 14.04789686655504
Epoch: 2026-05-26T20:11Z
TLE epoch observation values (Epoch: 2026-05-26T20:11:33.156Z)
Latitude
68.76853°
Longitude
162.85792°
Altitude
883.365 km
Speed
7.42 km/s
True Right ascension
23h 20m 37s
True Declination
68° 39' 15"
Sunlit
Object was in daylight at epoch
Visualization orbit readout
Latitude
Unknown
Longitude
Unknown
Altitude
Unknown
Speed
Unknown
Apparent Right ascension
Unknown
Apparent Declination
Unknown
Sunlit
N/A
Visualization observer readout
Local Sidereal Time
19:49:15
Azimuth
Unknown
Elevation
Unknown
Doppler factor
Unknown
Orbital elements
Apogee altitude
982.53 km
Perigee altitude
766.313 km
Semi-major axis
7,252.558 km
Eccentricity
0.01491
Inclination
98.431°
RAAN
12.4582°
Arg. of periapsis
158.1573°
True anomaly
272.19833°
Mean anomaly
273.9044°
Eccentric anomaly
273.05155°
Mean motion
3.51404 °/min
Orbital period
102.45 mins
BSTAR
0.00086143
Loading maneuver chart data...
Computing Atmospheric mass density...
Loading historical data...
Loading historical data...
Loading historical data...
Loading historical data...
Loading historical data...
Loading historical data...
Loading historical data...

Documentation

Showing up to 5 results
|